Notices

What's New in latest Release from April 7th, 2021:

- Updated Glossary, including Speed of Maximum Gust, and Total Hourly Precipitation

- Updated national and regional climate services offices contacts and prices information

- Addition of station inventory lists for 1981-2010, 1971-2000, and 1961-1990 Normals.

If you haven't already, please take our survey and provide feedback about our website: https://eccc.sondage-survey.ca/f/LanguageSelection.aspx?s=442ca660-fcf1-47c0-95a9-59707d6fd709

Hourly Data Report for April 28, 2018

KENORA A
ONTARIO
Current Station Operator: NAVCAN

49°47'18.000" N
94°21'47.000" W
409.70 m
6034076
71850
YQK

Download Data

Hourly Data (April 2018)
Hourly Data Report for April 28, 2018
TIME
LST
Temp Definition
°C
Dew Point Definition
°C
Rel Hum Definition
%
Precip. Amount Definition
mm

Wind Dir Definition
10's deg

Wind Spd Definition
km/h
Visibility Definition
km
Stn Press Definition
kPa
Hmdx Definition


Wind Chill Definition


Weather Definition


00:00 1.8 -3.4 68   36 8 24.1 97.24     Mainly Clear
01:00 1.0 -3.5 72   36 8 24.1 97.25     LegendNANA
02:00 0.5 -3.6 74   36 9 24.1 97.26     LegendNANA
03:00 0.3 -3.9 74   36 8 24.1 97.29     Mainly Clear
04:00 -0.3 -3.9 77   1 9 24.1 97.33   -3 LegendNANA
05:00 -0.4 -4.2 76   5 7 32.2 97.36   -3 LegendNANA
06:00 0.9 -3.4 73   9 10 32.2 97.42     Clear
07:00 2.0 -3.5 67   14 8 32.2 97.47     LegendNANA
08:00 4.7 -4.5 51   18 9 32.2 97.51     LegendNANA
09:00 6.5 -6.9 38   21 15 32.2 97.51     Clear
10:00 7.1 -7.7 34   21 18 32.2 97.49     LegendNANA
11:00 8.4 -7.1 33   17 26 32.2 97.46     LegendNANA
12:00 8.4 -7.5 32   21 25 32.2 97.42     Clear
13:00 9.0 -7.3 31   23 23 32.2 97.38     LegendNANA
14:00 10.0 -6.0 32   22 23 32.2 97.35     LegendNANA
15:00 10.9 -6.4 29   22 27 32.2 97.27     Clear
16:00 10.8 -5.9 30   22 27 32.2 97.19     LegendNANA
17:00 10.9 -5.4 31   20 21 32.2 97.14     LegendNANA
18:00 10.8 -5.1 32   20 21 32.2 97.06     Clear
19:00 9.5 -5.3 35   19 14 32.2 97.01     LegendNANA
20:00 8.0 -5.2 39   20 14 32.2 96.99     LegendNANA
21:00 7.1 -5.2 41   19 11 32.2 97.00     Clear
22:00 6.6 -5.1 43   19 14 32.2 96.99     LegendNANA
23:00 5.6 -4.9 47   19 14 32.2 96.98     LegendNANA

Notes on Data Quality.

Legend

  • E = Estimated
  • M = Missing
  • NA = Not Available*
  • [empty] = Indicates an unobserved value
Date modified: